Weather History for Hayward, WI

Change the Weather History Date:

Tuesday, December 18, 2012

  Actual Average Record
Temperature  
Mean Temperature 20 °F -  
Max Temperature 30 °F 26 °F 46 °F (1997)
Min Temperature 10 °F 13 °F -18 °F (2008)
Degree Days  
Heating Degree Days 45    
Moisture  
Dew Point 16 °F    
Average Humidity 82    
Maximum Humidity 92    
Minimum Humidity 66    
Precipitation  
Precipitation 0.00 in - - ()
Sea Level Pressure  
Sea Level Pressure 29.75 in    
Wind  
Wind Speed 1 mph (East)    
Max Wind Speed 5 mph    
Max Gust Speed -    
Visibility 10 miles    
Events      
Averages and records for this station are not official NWS values.
T = Trace of Precipitation, MM = Missing Value Source: NWS Daily Summary

Daily Weather History Graph

Daily Weather History Graph

Search for Another Location

Airport:

Trip Planner

Search our weather history database for the weather conditions in past years. The results will help you decide how hot, cold, wet, or windy it might be!

Date:

Astronomy

Dec. 18, 2012 Rise Set
Actual Time 7:43 AM CST 4:22 PM CST
Civil Twilight 7:08 AM CST 4:56 PM CST
Nautical Twilight 6:30 AM CST 5:34 PM CST
Astronomical Twilight 5:54 AM CST 6:11 PM CST
Moon 11:05 AM CST (12/18) 11:07 PM CST (12/18)
Length of Visible Light 9h 47m
Length of Day
8h 38m
Waxing Crescent, 35% of the Moon is Illuminated
Dec 18
Waxing Crescent
Dec 19
First Quarter
Dec 28
Full
Jan 4
Last Quarter
Jan 11
New

Hourly Weather History & Observations

Time (CST) Temp. Windchill Dew Point Humidity Pressure Visibility Wind Dir Wind Speed Gust Speed Precip Events Conditions
12:53 AM 21.9 °F - 17.1 °F 82% 29.75 in 10.0 mi Calm Calm - N/A   Overcast
1:10 AM 21.2 °F - 17.6 °F 86% 29.68 in 10.0 mi Calm Calm - N/A   Overcast
1:53 AM 21.9 °F - 17.1 °F 82% 29.74 in 10.0 mi Calm Calm - N/A   Overcast
2:28 AM 21.2 °F - 17.6 °F 86% 29.69 in 10.0 mi Calm Calm - N/A   Overcast
2:53 AM 19.9 °F - 16.0 °F 85% 29.75 in 10.0 mi Calm Calm - N/A   Overcast
3:21 AM 19.4 °F - 15.8 °F 86% 29.69 in 10.0 mi Calm Calm - N/A   Overcast
3:53 AM 18.0 °F - 16.0 °F 92% 29.74 in 10.0 mi Calm Calm - N/A   Overcast
4:53 AM 17.1 °F - 14.0 °F 88% 29.74 in 10.0 mi Calm Calm - N/A   Overcast
5:53 AM 14.0 °F - 9.0 °F 80% 29.74 in 10.0 mi Calm Calm - N/A   Clear
6:53 AM 10.9 °F - 8.1 °F 88% 29.75 in 10.0 mi Calm Calm - N/A   Clear
7:53 AM 16.0 °F 10.4 °F 12.9 °F 88% 29.75 in 10.0 mi NE 3.5 mph - N/A   Overcast
8:53 AM 19.9 °F - 16.0 °F 85% 29.75 in 10.0 mi Calm Calm - N/A   Overcast
9:53 AM 21.9 °F - 18.0 °F 85% 29.75 in 10.0 mi Calm Calm - N/A   Overcast
10:20 AM 23.0 °F 17.0 °F 17.6 °F 80% 29.69 in 10.0 mi ESE 4.6 mph - N/A   Overcast
10:36 AM 24.8 °F 20.5 °F 19.4 °F 80% 29.68 in 10.0 mi ESE 3.5 mph - N/A   Overcast
10:53 AM 24.1 °F 19.7 °F 19.0 °F 81% 29.75 in 10.0 mi East 3.5 mph - N/A   Overcast
11:23 AM 24.8 °F 20.5 °F 19.4 °F 80% 29.67 in 10.0 mi ESE 3.5 mph - N/A   Overcast
11:53 AM 26.1 °F 20.5 °F 19.0 °F 75% 29.72 in 10.0 mi East 4.6 mph - N/A   Overcast
12:53 PM 27.0 °F - 19.9 °F 75% 29.72 in 10.0 mi Calm Calm - N/A   Overcast
1:53 PM 28.0 °F 24.2 °F 19.9 °F 72% 29.71 in 10.0 mi NE 3.5 mph - N/A   Overcast
2:53 PM 30.0 °F - 19.9 °F 66% 29.73 in 10.0 mi Calm Calm - N/A   Overcast
3:53 PM 28.0 °F - 19.9 °F 72% 29.74 in 10.0 mi Calm Calm - N/A   Overcast
4:53 PM 25.0 °F - 19.9 °F 81% 29.75 in 10.0 mi Calm Calm - N/A   Scattered Clouds
5:53 PM 24.1 °F - 19.0 °F 81% 29.78 in 10.0 mi Calm Calm - N/A   Mostly Cloudy
6:53 PM 19.9 °F - 17.1 °F 89% 29.80 in 10.0 mi Calm Calm - N/A   Clear
7:53 PM 18.0 °F - 14.0 °F 84% 29.81 in 10.0 mi Calm Calm - N/A   Clear
8:53 PM 15.1 °F - 10.9 °F 84% 29.83 in 10.0 mi Calm Calm - N/A   Clear
9:53 PM 12.0 °F - 8.1 °F 84% 29.84 in 10.0 mi Calm Calm - N/A   Clear
10:53 PM 10.9 °F - 7.0 °F 84% 29.85 in 10.0 mi Calm Calm - N/A   Clear
11:53 PM 12.0 °F - 8.1 °F 84% 29.86 in 10.0 mi Calm Calm - N/A   Mostly Cloudy